sat.trackr.live / text

‹ back to catalog

STARLINK-32670

NORAD 62210 · 2024-229U

PAYLOAD ACTIVE UNKNOWN

§ Identity

Operator
Country
US
Launch date
2024-12-04
Launch site
AFETR
Launch vehicle
Mass (kg)
RCS (m²)

Purposes: comms

External: N2YO · Heavens-Above · Gunter

§ Orbital elements

Epoch: 2026-05-25T04:42:07.371360Z

Period
94.27 min
Inclination
42.9990°
Eccentricity
0.0000357
Mean motion
15.27585065 rev/d
Perigee alt
482.8 km
Apogee alt
483.3 km
Semi-major
6,861.2 km
B*
6.0406e-4
RAAN
198.5039°
Arg perigee
53.5083°
Mean anomaly
306.5802°
Rev number
8,226

§ Raw data

STARLINK-326701 62210U 24229U   26145.19591865  .00016400  00000+0  60406-3 0  99912 62210  42.9990 198.5039 0000357  53.5083 306.5802 15.27585065 82266

JSON: /api/v1/satellites/62210 · /tle

For live sub-satellite position, see the globe view (requires WebGL).

§ Visibility from observer

Set your observer location to see the next 7 days of passes ≥ 10°. The values pass through the URL so the page stays shareable.

No JS? Fill the form by hand. The geolocation button needs JavaScript.